Location: Morisset
(33.1080°S, 151.4871°E)
Time: 08:46:22
(UTC+00:00)

Cosmos 1943 Rocket - Pass Details

Date: 29 October 2020
Orbit: 813 x 842 km, 71.0° (Epoch: 27 November)

Event Time Altitude Azimuth Distance (km) Brightness Sun altitude
Exits shadow 17:01:37 44° 270° (W) 1,150 2.5 -22.5°
Maximum altitude 17:02:24 47° 246° (WSW) 1,105 2.5 -22.3°
Drops below altitude 10° 17:07:54 10° 172° (S) 2,481 5.2 -21.4°
Sets 17:10:28 0° 166° (SSE) 3,425 6.1 -21.0°
